Location: Cantaing
(50.1487°N, 3.1675°E)
Time: 06:18:10
(UTC+00:00)

Cosmos 1500 Rocket - Pass Details

Date: 14 January 2026
Orbit: 597 x 623 km, 82.5° (Epoch: 10 February)

Event Time Altitude Azimuth Distance (km) Brightness Sun altitude
Rises 05:57:48 0° 200° (SSW) 2,851 6.9 -16.0°
Reaches altitude 10° 06:00:02 10° 204° (SSW) 1,957 6.0 -15.6°
Maximum altitude 06:04:18 56° 283° (WNW) 733 3.6 -15.0°
Drops below altitude 10° 06:08:38 10° 3° (N) 1,989 6.0 -14.3°
Sets 06:10:55 0° 7° (N) 2,903 6.9 -13.9°
